Meteo Giornale » Osservazioni meteo Slovenia » Portoroz

ore: 16:30 - Osservazioni Meteo Portoroz
Lat. 45° 31' N Lon. 13° 34' E Alt. 95 metri s.l.m.

coperto_pioggia Europe/Ljubljana

17 °C

Pioggia Debole

Temp. 24 Ore

17 °C

26 °C

Sud-Est

13 Km/h

Dew point 15 °C

Umidità 88 %

Visibilità  10 Km

Il sole sorge alle ore 05:16

Il sole tramonta alle ore 20:51

Data e Ora Cielo e Fenomeni T °C DP °C Um. % Pres. hPa Vis. km Vento km/h
Oggi h: 16:30 coperto_pioggia Pioggia Debole 17 15 88 1003 10 SE 13
Oggi h: 16:00 coperto_pioggia Pioggia Debole 17 15 88 1003 10 SE 14.8
Oggi h: 15:30 coperto_pioggia Pioggia Debole 18 16 88 1004 10 S 13
Oggi h: 14:30 coperto_pioggia Pioggia Debole 19 16 82 1004 10 S 9.3
Oggi h: 14:00 coperto_pioggia Pioggia Debole 19 16 82 1004 10 SO 11.1
Oggi h: 13:30 coperto_pioggia Pioggia Debole 19 16 82 1004 10 SO 7.4
Oggi h: 13:00 coperto_pioggia Pioggia Debole 18 16 88 1005 10 SO 11.1
Oggi h: 12:30 coperto_pioggia Pioggia 18 14 77 1005 8 SO 13
Oggi h: 12:00 coperto_pioggia Pioggia Debole 18 15 82 1004 10 S/SO 14.8
Oggi h: 11:30 coperto_pioggia Pioggia Debole 20 14 68 1004 10 S 13
Oggi h: 11:00 molto_nuvoloso Molto Nuvoloso 21 14 64 1004 10 S/SO 24
Oggi h: 10:30 molto_nuvoloso Molto Nuvoloso 22 14 60 1004 10 S/SO 22.2
Oggi h: 10:00 molto_nuvoloso Molto Nuvoloso 22 14 60 1004 10 S 22.2
Oggi h: 09:30 molto_nuvoloso Molto Nuvoloso 22 14 60 1004 10 S 22.2
Oggi h: 09:00 nuvoloso Nuvoloso 22 15 64 1004 10 SE 16.7
Oggi h: 08:30 molto_nuvoloso Molto Nuvoloso 22 15 64 1004 10 S/SE 13
Oggi h: 08:00 molto_nuvoloso Molto Nuvoloso 21 14 64 1004 10 S/SE 13
Oggi h: 07:30 sereno Sereno 21 14 64 1004 10 S/SE 11.1
Oggi h: 07:00 sereno Sereno 20 14 68 1003 10 E/SE 14.8
Oggi h: 06:30 sereno Sereno 19 14 72 1003 10 SE 16.7
Oggi h: 06:00 sereno Sereno 18 14 77 1003 10 SE 16.7
Oggi h: 05:30 sereno Sereno 19 14 72 1003 10 SE 14.8
Oggi h: 05:00 molto_nuvoloso Molto Nuvoloso 19 14 72 1003 10 SE 14.8
Oggi h: 04:30 molto_nuvoloso Molto Nuvoloso 19 14 72 1003 10 SE 16.7
Oggi h: 04:00 molto_nuvoloso Molto Nuvoloso 19 14 72 1004 10 E/SE 13
Oggi h: 03:00 molto_nuvoloso Molto Nuvoloso 19 14 72 1004 10 E/SE 16.7
Oggi h: 02:30 sereno Sereno 19 14 72 1004 10 E/SE 13
Oggi h: 02:00 coperto Coperto 18 13 72 1004 10 E/SE 11.1
Oggi h: 01:30 sereno Sereno 18 13 72 1005 10 E/SE 11.1
Oggi h: 01:00 sereno Sereno 18 13 72 1005 10 SE 9.3
Oggi h: 00:30 sereno Sereno 18 13 72 1005 10 SE 9.3
Oggi h: 00:00 sereno Sereno 18 14 77 1006 10 SE 7.4
Ieri h: 23:30 molto_nuvoloso Molto Nuvoloso 19 14 72 1006 10 N 0
Ieri h: 23:00 coperto_pioggia Pioggia 21 13 60 1006 10 S/SE 9.3
Ieri h: 22:30 molto_nuvoloso Molto Nuvoloso 21 12 56 1006 10 S/SE 13
Ieri h: 22:00 molto_nuvoloso Molto Nuvoloso 20 14 68 1006 10 S 16.7
Ieri h: 21:00 molto_nuvoloso Molto Nuvoloso 22 15 64 1005 10 S 16.7
Ieri h: 20:00 sereno Sereno 24 14 53 1005 10 S/SO 11.1
Ieri h: 19:30 sereno Sereno 24 12 47 1005 10 S/SO 11.1
Ieri h: 19:00 sereno Sereno 25 10 38 1005 10 S/SO 9.3
Ieri h: 18:30 sereno Sereno 26 10 36 1005 10 S/SO 9.3
Ieri h: 18:00 sereno Sereno 26 10 36 1005 10 S/SO 9.3
Ieri h: 17:00 sereno Sereno 25 12 44 1006 10 S/SO 16.7